User: anonymous   Login
Location: Vale
(35.4830°N, 81.3830°W)
Time: 22:51:25
(UTC-05:00)
Language:

Oscar 11 - Orbit

View from above orbital plane
View from above orbital plane
View from above satellite
View from above satellite

Ground track
Ground track

The orbit data is extracted from the following two-line orbital elements,

1 14781U 84021B   17326.60043144 +.00000129 +00000-0 +22063-4 0  9996
2 14781 097.6776 006.3075 0009531 047.9306 312.2718 14.82957722792822
Epoch (UTC): 22 November 2017 14:24:37
Eccentricity: 0.0009531
inclination: 97.6776°
perigee height: 613 km
apogee height: 626 km
right ascension of ascending node: 6.3075°
argument of perigee: 47.9306°
revolutions per day: 14.82957722
mean anomaly at epoch: 312.2718°
orbit number at epoch: 79282

The dashed part of the orbit path shows where the satellite is in the earth's shadow,  

DLR